Regional Weather Roundup
Issued by NWS

Home | Current Version | Previous Version | Text Only | Print | Product List | Glossary Off
Versions: 1 2 3 4 5 6 7 8 9 10 11 12 13 14 15 16 17 18 19 20 21 22 23 24 25 26 27 28 29 30 31 32 33 34 35 36 37 38 39 40 41 42 43 44 45 46 47 48 49 50

000
ASUS43 KMPX 231801
RWRMN
WEATHER ROUNDUP FOR MINNESOTA
NATIONAL WEATHER SERVICE TWIN CITIES/CHANHASSEN MN
100 PM CDT MON OCT 23 2017


NOTE: "FAIR" INDICATES FEW OR NO CLOUDS BELOW 12,000 FEET WITH NO
SIGNIFICANT WEATHER AND/OR OBSTRUCTIONS TO VISIBILITY. N/A MEANS
CURRENT SKY AND/OR WEATHER CONDITIONS ARE NOT AVAILABLE.

MNZ060>063-068>070-231900-
   Twin Cities Metro

CITY           SKY/WX    TMP DP  RH WIND       PRES   REMARKS
TWIN CITIES    PTSUNNY   59  41  51 W16G25    29.78S
6HR MIN TEMP:  50; 6HR MAX TEMP:  61;

ST PAUL        MOSUNNY   57  40  52 NW17      29.78S
CRYSTAL        MOSUNNY   58  36  43 W20       29.77F
BLAINE         PTSUNNY   61  41  48 W17G29    29.76F
LAKEVILLE      CLOUDY    57  41  54 W13G21    29.78F
EDEN PRAIRIE   PTSUNNY   59  40  49 NW17G28   29.78F
6HR MIN TEMP:  48; 6HR MAX TEMP:  60;

SOUTH ST PAUL  MOSUNNY   59  38  47 NW14G21   29.77S
LAKE ELMO      FAIR      59  37  44 NW15G23   29.77S
$$
MNZ001>005-007-008-013>017-022>024-027-028-231900-
   Northwest Minnesota

CITY           SKY/WX    TMP DP  RH WIND       PRES   REMARKS
BEMIDJI        CLOUDY    43  38  82 NW25G33   29.80R
HALLOCK        PTSUNNY   48  34  57 NW22G30   29.92R
ROSEAU         CLOUDY    45  36  70 NW16      29.86R
WARROAD        CLOUDY    45  37  76 NW17G30   29.84R
CROOKSTON      CLOUDY    48  36  61 N25G36    29.93R
FOSSTON        CLOUDY    41  36  81 NW21G29   29.89R
DETROIT LAKES  MOSUNNY   45  36  70 NW25G36   29.90R
MOORHEAD       CLOUDY    48  37  66 NW20      29.94R
PARK RAPIDS    LGT RAIN  47  36  65 NW25G43   29.81R
MAHNOMEN       CLOUDY    44  33  65 NW22G31   29.89R
$$
MNZ006-009>011-018-025>026-231900-
   North Central Minnesota

CITY           SKY/WX    TMP DP  RH WIND       PRES   REMARKS
BAUDETTE       CLOUDY    44  37  76 NW22G33   29.79R
FLAG ISLAND    CLOUDY    45  34  65 NW24      29.81R
INTL FALLS     CLOUDY    50  46  86 NW18G24   29.70R
6HR MIN TEMP:  47; 6HR MAX TEMP:  51; 6HR PCP:  0.07;

WASKISH        CLOUDY    45  39  81 NW16G26   29.78R
BIG FORK       CLOUDY    48  43  81 W8G17     29.72R
LONGVILLE      CLOUDY    46  39  76 NW10G23   29.77R
GRAND RAPIDS   CLOUDY    48  41  76 W12       29.77R
CRANE LAKE     CLOUDY    52  45  76 N5        29.69R
ORR            CLOUDY    52  39  62 SW9       29.68R
COOK           CLOUDY    52  43  71 W12       29.71R
WALKER         CLOUDY    44  37  78 NW20G28   29.79R
$$
MNZ012-019>021-037-231900-
   Northeast Minnesota

CITY           SKY/WX    TMP DP  RH WIND       PRES   REMARKS
DULUTH         MOSUNNY   58  43  57 W9        29.69S
6HR MIN TEMP:  49; 6HR MAX TEMP:  59; 6HR PCP: TRACE;

ELY            PTSUNNY   57  39  51 W6        29.67R
HIBBING        CLOUDY    52  39  61 W10       29.72R
EVELETH        PTSUNNY   58  35  42 W13       29.71R
DULUTH HARBOR  PTSUNNY   61  46  59 W9        29.69S
TWO HARBORS    SUNNY     64  46  52 W6        29.65F
SILVER BAY     SUNNY     61  43  51 S6        29.64F
GRAND MARAIS     N/A     54  47  77 CALM      29.67
G MARAIS ARPRT SUNNY     55  37  50 S5        29.67S
$$
MNZ029>031-032-039>041-046>048-054>057-064-231900-
   West Central Minnesota

CITY           SKY/WX    TMP DP  RH WIND       PRES   REMARKS
FERGUS FALLS   CLOUDY    46  36  66 N26G35    29.92R
WHEATON        MOSUNNY   52  36  54 NW25G33   29.96R
MORRIS         CLOUDY    48  37  66 N30G38    29.89S
ALEXANDRIA     CLOUDY    48  38  68 N29G38    29.86R
ELBOW LAKE     CLOUDY    47  38  73 W25G37    29.91R
WADENA         CLOUDY    46  37  71 NW21G30   29.83R
GLENWOOD       CLOUDY    46  39  76 NW21G31   29.86R
APPLETON       CLOUDY    48  39  71 NW21G35   29.91R
BENSON         CLOUDY    46  39  76 N26G35    29.91R
ORTONVILLE     CLOUDY    48  37  66 N24G32    29.95R
MADISON        CLOUDY    52  39  62 NW24G31   29.94R
WILLMAR        CLOUDY    48  41  76 NW26G32   29.88R
$$
MNZ033>034-036-042>043-049>051-058-059-231900-
   Central Minnesota

CITY           SKY/WX    TMP DP  RH WIND       PRES   REMARKS
ST CLOUD       CLOUDY    51  39  63 NW17      29.81R
6HR MIN TEMP:  44; 6HR MAX TEMP:  57;

SAUK CENTRE    CLOUDY    46  40  79 NW20G25   29.84R
PAYNESVILLE    CLOUDY    48  40  73 W22       29.84R
AITKIN         CLOUDY    50  37  62 W5        29.77R
PINE RIVER     CLOUDY    45  37  76 NW17G23   29.82R
BRAINERD       CLOUDY    50  39  66 NW14G23   29.79R
STAPLES        CLOUDY    46  37  71 NW21G30   29.81R
LONG PRAIRIE   CLOUDY    45  37  76 W22       29.83R
LITTLE FALLS   CLOUDY    48  34  57 NW15G23   29.80S
LITCHFIELD     CLOUDY    52  39  62 NW13G25   29.85R
BUFFALO        CLOUDY    53  38  57 W15       29.83R
MAPLE LAKE     CLOUDY    53  40  61 W15G25    29.83R
HUTCHINSON     PTSUNNY   53  39  59 W18G26    29.85R
$$
MNZ037-044-045-052-053-231900-
   East Central Minnesota

CITY           SKY/WX    TMP DP  RH WIND       PRES   REMARKS
PRINCETON      CLOUDY    55  39  54 W14G24    29.79S
MORA           MOSUNNY   55  37  50 NW13G20   29.77S
CAMBRIDGE      SUNNY     61  43  51 W14       29.77S
RUSH CITY      PTSUNNY   58  41  53 W9        29.75F
MOOSE LAKE     PTSUNNY   59  41  51 W12G17    29.72R
HINCKLEY       FAIR      57  43  58 W12G17    29.74S
CLOQUET        PTSUNNY   57  39  51 W9        29.71R
MCGREGOR       CLOUDY    54  39  58 W12       29.76R
$$
MNZ071>073-080-081-089-090-097-098-231900-
   Southwest Minnesota

CITY           SKY/WX    TMP DP  RH WIND       PRES   REMARKS
MONTEVIDEO     CLOUDY    48  39  71 N20G32    29.91R
GRANITE FALLS  CLOUDY    50  41  71 NW22G33   29.93R
CANBY          CLOUDY    49  38  66 W23G30    29.95S
MARSHALL       CLOUDY    49  37  63 NW30G37   29.91R
REDWOOD FALLS  CLOUDY    51  36  56 NW17G32   29.88R
OLIVIA         CLOUDY    50  37  62 NW18G35   29.87R
PIPESTONE      CLOUDY    50  36  57 NW22G31   29.94S
WORTHINGTON    CLOUDY    52  37  56 NW30G37   29.92R
JACKSON        PTSUNNY   54  34  47 NW28G36   29.89R
TRACY          CLOUDY    53  38  55 NW23G31   29.91R
SLAYTON        CLOUDY    51  36  55 NW25G40   29.92S
$$
MNZ065>067-074>077-082>085-091>093-231900-
   South Central Minnesota

CITY           SKY/WX    TMP DP  RH WIND       PRES   REMARKS
NEW ULM          N/A     55  36  47 NW30G37   29.85S
ST JAMES       PTSUNNY   55  36  47 NW22G35   29.88R
FAIRMONT       PTSUNNY   57  38  48 NW29      29.86S
GLENCOE        PTSUNNY   57  39  51 W18G28    29.83R
FARIBAULT      MOSUNNY   59  39  47 W18G25    29.81S
OWATONNA       CLOUDY    57  41  54 W18G30    29.81F
WASECA         CLOUDY    55  37  50 W22G28    29.84R
$$
MNZ078>079-086>088-094>096-231900-
   Southeast Minnesota

CITY           SKY/WX    TMP DP  RH WIND       PRES   REMARKS
ROCHESTER      PTSUNNY   53  44  71 W10       29.81F
6HR MIN TEMP:  44; 6HR MAX TEMP:  53; 6HR PCP: TRACE;

RED WING       CLOUDY    57  39  51 W10G16    29.75F
STANTON        CLOUDY    58  41  53 W15G24    29.78S
DODGE CENTER   CLOUDY    55  39  54 W15G22    29.80S
WINONA         CLOUDY    55  43  62 NW13G21   29.76S
AUSTIN         CLOUDY    55  43  62 W12G20    29.81F
PRESTON        CLOUDY    51  42  71 W9        29.80S
$$
ABBREVIATIONS USED IN REMARKS
   TC - TEMPERATURES IN CELSIUS
  WCI - WIND CHILL INDEX
   HX - HEAT INDEX
  VSB - VISIBILITY
$$



USA.gov is the U.S. government's official web portal to all federal, state and local government web resources and services.